#timestamp,LO_Frequency,Hit,StdDev 
1622039835.5,286047025.9,P
1622039855.3,286047025.7,P
1622039875.1,286047025.5,P
1622039895.9,286047027.9,Y
1622039915.7,286047000.0,P
1622039935.6,286047002.8,N
1622039955.4,286047002.7,N
1622039975.2,286047001.7,N
1622039995.1,286047001.3,N
1622039996.0,286047011.9,N
1622040015.8,286047003.9,N
1622040035.6,286047002.9,N
1622040055.5,286047005.5,N
1622040075.3,286047005.9,N
1622040095.2,286047002.9,N
1622040115.9,286047006.0,N
1622040135.7,286047005.3,N
1622040155.6,286047005.2,N
1622040175.4,286047005.8,N
1622040195.2,286047007.6,N
1622040215.1,286047006.2,N
1622040216.0,286047006.2,N
1622040235.8,286047008.1,N
1622040255.7,286047008.2,N
1622040275.5,286047009.2,N
1622040295.3,286047008.6,N
1622040315.2,286047010.4,N
1622040335.0,286047012.2,N
1622040335.9,286047011.9,N
1622040355.7,286047011.8,N
1622040375.6,286047012.0,N
1622040395.4,286047012.4,N
1622040415.3,286047011.6,N
1622040435.1,286047012.4,N
1622040436.0,286047012.4,Y
1622040455.8,286047005.4,P
1622040475.7,286047005.9,P
1622040495.5,286047005.1,P
1622040515.4,286047007.6,Y
1622040535.2,286047000.8,P
1622040555.0,286047002.0,N
1622040555.9,286047002.0,N
1622040575.8,286047003.1,N
1622040595.6,286047003.9,N
1622040615.4,286047002.1,N
1622040635.3,286047004.3,N
1622040655.1,286047003.8,N
1622040675.9,286047005.6,Y
1622040695.7,286047002.7,P
1622040715.5,286047001.8,P
1622040735.4,286047004.1,P
1622040755.2,286047003.8,Y
1622040775.0,286047002.1,P
1622040776.0,286047002.1,P
1622040795.8,286047002.2,P
1622040815.6,286047002.1,Y
1622040835.5,286046998.3,P
1622040855.3,286047001.0,N
1622040875.1,286047001.1,N
1622040895.9,286047000.8,N
1622040915.7,286047000.4,N
1622040935.6,286047002.6,N
1622040955.4,286047002.8,N
1622040975.2,286047002.4,N
1622040995.1,286047002.3,N
1622040996.0,286047002.3,N
1622041015.8,286047002.4,N
1622041035.6,286047001.3,N
1622041055.5,286047001.5,N
1622041075.3,286047001.7,N
1622041095.2,286047003.6,Y
1622041115.9,286047004.1,P
1622041135.7,286047004.3,P
1622041155.6,286047003.7,N
1622041175.4,286047001.4,N
1622041195.3,286047004.1,Y
